DW8935 Weather Reports


Display with metric or nautical units.
time (UTC)temp
F
wind
direction
speed
MPH
gust
MPH
rain 1hr
in
rain 24hr
in
rain mn
in
humidity
%
barometer
mb
20260504000032 64 346 6.0 18.0 0.00 0.00 0.00 62 1010.7
20260503234533 63 328 5.0 16.0 0.00 0.00 0.00 64 1010.8
20260503233026 62 298 5.0 14.0 0.00 0.00 0.00 66 1010.8
20260503231524 61 344 8.0 18.0 0.00 0.00 0.00 66 1011.0
20260503230022 60 11 5.0 12.0 0.00 0.00 0.00 66 1011.1
20260503224520 60 300 4.0 13.0 0.00 0.00 0.00 67 1011.2
20260503223019 59 336 2.0 7.0 0.00 0.00 0.00 68 1011.4
20260503221518 58 344 2.0 10.0 0.00 0.00 0.00 71 1011.4
20260503220018 58 348 2.0 7.0 0.00 0.00 0.00 73 1011.3
20260503214517 57 349 2.0 7.0 0.00 0.00 0.00 73 1011.2
20260503213019 57 5 2.0 7.0 0.00 0.00 0.00 73 1011.1
20260503211517 57 12 1.0 5.0 0.00 0.00 0.00 72 1011.1
20260503210016 57 351 2.0 5.0 0.00 0.00 0.00 73 1011.2
20260503204525 56 10 3.0 8.0 0.00 0.00 0.00 74 1011.0
20260503203016 56 355 2.0 7.0 0.00 0.00 0.00 76 1010.8
20260503201515 56 355 3.0 8.0 0.00 0.00 0.00 78 1010.7
20260503200018 55 22 2.0 6.0 0.00 0.00 0.00 79 1010.8
20260503194513 55 334 1.0 3.0 0.00 0.00 0.00 79 1010.8
20260503193029 55 27 0.0 0.0 0.00 0.00 0.00 79 1010.9
20260503191509 55 355 0.0 0.0 0.00 0.00 0.00 78 1011.1
20260503190009 55 22 0.0 0.0 0.00 0.00 0.00 77 1011.3
20260503184507 56 22 0.0 0.0 0.00 0.00 0.00 77 1011.4
20260503183008 56 18 0.0 0.0 0.00 0.00 0.00 76 1011.2
20260503181505 57 348 0.0 6.0 0.00 0.00 0.00 75 1011.4
20260503180006 57 5 2.0 7.0 0.00 0.00 0.00 76 1011.5
20260503174502 57 5 2.0 8.0 0.00 0.00 0.00 76 1011.5
20260503173004 57 360 2.0 7.0 0.00 0.00 0.00 76 1011.7
20260503171503 56 360 2.0 6.0 0.00 0.00 0.00 77 1011.7
20260503081525 60 345 0.0 3.0 0.00 0.00 0.00 84 1010.7
20260503071518 62 267 1.0 8.0 0.00 0.00 0.00 84 1010.2
20260503054514 63 316 1.0 8.0 0.00 0.00 0.00 85 1010.0
20260503053014 65 252 2.0 8.0 0.00 0.00 0.00 83 1009.9
20260503051518 68 276 2.0 8.0 0.00 0.00 0.00 82 1010.0
20260503044515 71 312 5.0 15.0 0.00 0.00 0.00 71 1009.4
20260503043011 72 360 3.0 16.0 0.00 0.00 0.00 69 1009.2
20260503041509 71 339 3.0 12.0 0.00 0.00 0.00 71 1009.2
20260503040009 71 344 8.0 19.0 0.00 0.00 0.00 72 1009.3
20260503034509 68 329 5.0 15.0 0.00 0.00 0.00 80 1009.3
20260503031509 66 348 4.0 19.0 0.00 0.00 0.00 84 1009.3
20260503030008 66 355 3.0 20.0 0.00 0.00 0.00 86 1009.4
20260503024508 66 5 5.0 19.0 0.00 0.00 0.00 90 1009.8
20260503021506 64 5 4.0 17.0 0.00 0.00 0.00 90 1009.8
20260503020005 64 44 8.0 21.0 0.00 0.00 0.00 89 1009.4
20260503014502 64 32 7.0 20.0 0.00 0.00 0.00 89 1010.0
20260503011608 65 338 9.0 18.0 0.00 0.00 0.00 87 1011.2
20260503010121 65 26 2.0 7.0 0.00 0.00 0.00 86 1010.9
20260503004557 66 332 3.0 13.0 0.00 0.00 0.00 82 1011.2
20260503001559 69 360 7.0 23.0 0.00 0.00 0.00 72 1010.9